EW7244 Weather Reports


time (UTC)temp
C
wind
direction
speed
KPH
gust
KPH
rain 1hr
cm
rain 24hr
cm
rain mn
cm
humidity
%
barometer
mb
20260505041610 12 259 0.0 0.0 0.00 0.00 0.00 84 1009.5
20260505040046 11 259 0.0 0.0 0.00 0.00 0.00 84 1009.5
20260505034551 11 259 0.0 0.0 0.00 0.00 0.00 84 1009.6
20260505033027 12 259 0.0 0.0 0.00 0.00 0.00 82 1009.6
20260505031555 12 259 0.0 0.0 0.00 0.00 0.00 82 1009.7
20260505030108 12 259 0.0 0.0 0.00 0.00 0.00 82 1009.8
20260505024601 12 259 0.0 0.0 0.00 0.00 0.00 82 1010.0
20260505023100 12 259 0.0 0.0 0.00 0.00 0.00 82 1009.9
20260505021556 12 259 0.0 0.0 0.00 0.00 0.00 82 1010.1
20260505014548 12 259 0.0 0.0 0.00 0.00 0.00 81 1010.2
20260505013037 12 259 0.0 0.0 0.00 0.00 0.00 81 1010.4
20260505011554 12 259 0.0 0.0 0.00 0.00 0.00 81 1010.6
20260505010104 12 259 0.0 0.0 0.00 0.00 0.00 80 1010.7
20260505004554 12 259 0.0 0.0 0.00 0.00 0.00 79 1010.9
20260505003049 12 259 0.0 0.0 0.00 0.00 0.00 80 1011.0
20260505001540 12 259 0.0 0.0 0.00 0.00 0.00 78 1011.1
20260505000053 13 259 0.0 0.0 0.00 0.00 0.00 78 1011.2
20260504234526 13 260 0.0 0.0 0.00 0.00 0.00 77 1011.4
20260504233014 13 260 0.0 0.0 0.00 0.00 0.00 77 1011.5
20260504231519 13 260 0.0 0.0 0.00 0.00 0.00 77 1011.6
20260504230111 13 259 0.0 0.0 0.00 0.00 0.00 76 1011.7
20260504224527 13 259 0.0 0.0 0.00 0.00 0.00 76 1011.7
20260504223050 13 259 0.0 0.0 0.00 0.00 0.00 75 1011.8
20260504221600 14 259 0.0 0.0 0.00 0.00 0.00 75 1011.9
20260504220100 14 261 0.0 0.0 0.00 0.00 0.00 74 1012.0
20260504214550 14 262 0.0 0.0 0.00 0.00 0.00 73 1012.0
20260504213044 15 262 0.0 0.0 0.00 0.00 0.00 72 1012.1
20260504211543 15 262 0.0 0.0 0.00 0.00 0.00 72 1012.1
20260504204551 15 314 0.0 0.0 0.00 0.00 0.00 72 1012.0
20260504203046 15 314 0.0 0.0 0.00 0.00 0.00 72 1012.0
20260504201547 15 314 0.0 1.6 0.00 0.00 0.00 71 1012.0
20260504194550 16 315 0.0 0.0 0.00 0.00 0.00 69 1011.9
20260504193045 16 315 0.0 0.0 0.00 0.00 0.00 67 1011.7
20260504191609 16 316 0.0 0.0 0.00 0.00 0.00 66 1011.6
20260504190050 16 263 0.0 0.0 0.00 0.00 0.00 66 1011.4
20260504184541 17 291 0.0 0.0 0.00 0.00 0.00 65 1011.4
20260504183031 17 254 0.0 0.0 0.00 0.00 0.00 62 1011.4
20260504181519 17 253 0.0 3.2 0.00 0.00 0.00 62 1011.3
20260504180008 17 301 0.0 0.0 0.00 0.00 0.00 62 1011.2
20260504174559 17 278 0.0 0.0 0.00 0.00 0.00 61 1010.9
20260504173057 17 274 0.0 1.6 0.00 0.00 0.00 60 1010.9
20260504171551 18 251 0.0 0.0 0.00 0.00 0.00 58 1011.0
20260504120107 22 9 0.0 0.0 0.00 0.00 0.00 46 1012.0
20260504081600 16 148 0.0 0.0 0.00 0.00 0.00 69 1013.8